SV2JU-2 Weather Reports


time (UTC)temp
C
wind
direction
speed
KPH
gust
KPH
rain 1hr
cm
rain 24hr
cm
rain mn
cm
humidity
%
barometer
mb
20260508060214 17 242 0.0 3.2 0.00 0.00 0.00 61 1016.0
20260508054946 17 0 0.0 0.0 0.00 0.00 0.00 61 1016.0
20260508034445 16 0 0.0 0.0 0.00 0.00 0.00 57 1016.0
20260508033214 16 0 0.0 0.0 0.00 0.00 0.00 56 1016.0
20260508031943 16 0 0.0 0.0 0.00 0.00 0.00 55 1016.0
20260508030713 16 0 0.0 0.0 0.00 0.00 0.00 55 1016.0
20260508025443 16 0 0.0 0.0 0.00 0.00 0.00 54 1016.0
20260508024215 16 0 0.0 0.0 0.00 0.00 0.00 54 1016.0
20260508010213 17 0 0.0 0.0 0.00 0.00 0.00 50 1016.0
20260508004942 17 0 0.0 0.0 0.00 0.00 0.00 50 1016.0
20260508003713 17 0 0.0 0.0 0.00 0.00 0.00 50 1016.0
20260508002442 17 0 0.0 0.0 0.00 0.00 0.00 50 1016.0
20260508001212 17 0 0.0 0.0 0.00 0.00 0.00 50 1016.0
20260507235941 17 0 0.0 0.0 0.00 0.00 0.00 50 1017.0
20260507234712 17 0 0.0 0.0 0.00 0.00 0.00 50 1017.0
20260507233441 17 0 0.0 0.0 0.00 0.00 0.00 50 1017.0
20260507232212 17 0 0.0 0.0 0.00 0.00 0.00 50 1017.0
20260507230941 17 0 0.0 0.0 0.00 0.00 0.00 50 1017.0
20260507225712 17 0 0.0 0.0 0.00 0.00 0.00 50 1017.0
20260507224441 17 0 0.0 0.0 0.00 0.00 0.00 49 1017.0
20260507223212 18 0 0.0 0.0 0.00 0.00 0.00 49 1017.0
20260507221941 18 0 0.0 0.0 0.00 0.00 0.00 48 1017.0
20260507220712 18 0 0.0 0.0 0.00 0.00 0.00 48 1017.0
20260507215441 18 0 0.0 0.0 0.00 0.00 0.00 49 1017.0
20260507212941 18 0 0.0 0.0 0.00 0.00 0.00 49 1017.0
20260507211711 18 0 0.0 0.0 0.00 0.00 0.00 49 1017.0
20260507210441 18 0 0.0 0.0 0.00 0.00 0.00 49 1017.0
20260507203940 18 0 0.0 0.0 0.00 0.00 0.00 47 1017.0
20260507201441 18 0 0.0 0.0 0.00 0.00 0.00 46 1017.0
20260507200212 18 0 0.0 0.0 0.00 0.00 0.00 45 1017.0
20260507194940 18 0 0.0 0.0 0.00 0.00 0.00 45 1017.0
20260507193711 18 0 0.0 0.0 0.00 0.00 0.00 45 1017.0
20260507192440 18 0 0.0 0.0 0.00 0.00 0.00 45 1017.0
20260507191211 18 0 0.0 0.0 0.00 0.00 0.00 45 1017.0
20260507185940 18 0 0.0 0.0 0.00 0.00 0.00 44 1017.0
20260507184711 18 0 0.0 0.0 0.00 0.00 0.00 43 1017.0
20260507183440 18 0 0.0 0.0 0.00 0.00 0.00 42 1017.0
20260507182211 18 0 0.0 0.0 0.00 0.00 0.00 42 1017.0
20260507180940 19 0 0.0 0.0 0.00 0.00 0.00 41 1017.0
20260507175711 19 0 0.0 0.0 0.00 0.00 0.00 40 1017.0
20260507174440 19 247 1.6 6.4 0.00 0.00 0.00 40 1017.0
20260507173210 19 0 0.0 0.0 0.00 0.00 0.00 39 1016.0
20260507171939 19 0 0.0 0.0 0.00 0.00 0.00 37 1016.0
20260507170710 19 0 0.0 0.0 0.00 0.00 0.00 39 1017.0
20260507165440 20 0 0.0 0.0 0.00 0.00 0.00 39 1017.0
20260507164210 20 0 0.0 0.0 0.00 0.00 0.00 38 1017.0
20260507162939 20 0 0.0 0.0 0.00 0.00 0.00 39 1017.0
20260507161710 20 181 0.0 3.2 0.00 0.00 0.00 39 1017.0
20260507160439 20 161 3.2 4.8 0.00 0.00 0.00 38 1017.0
20260507153939 20 0 0.0 0.0 0.00 0.00 0.00 38 1017.0
20260507152710 20 0 0.0 0.0 0.00 0.00 0.00 38 1017.0
20260507151439 20 0 0.0 0.0 0.00 0.00 0.00 38 1017.0
20260507150210 20 266 0.0 3.2 0.00 0.00 0.00 37 1017.0
20260507133209 21 266 0.0 3.2 0.00 0.00 0.00 42 1017.0
20260507131935 20 0 0.0 0.0 0.00 0.00 0.00 43 1017.0
20260507130709 20 164 0.0 3.2 0.00 0.00 0.00 44 1017.0
20260507125435 20 0 0.0 0.0 0.00 0.00 0.00 43 1017.0
20260507124206 20 0 0.0 0.0 0.00 0.00 0.00 43 1017.0
20260507122936 20 5 3.2 4.8 0.00 0.00 0.00 48 1018.0
20260507121706 20 5 3.2 4.8 0.00 0.00 0.00 47 1018.0
20260507120435 20 5 3.2 4.8 0.00 0.00 0.00 47 1018.0
20260507115206 19 18 3.2 4.8 0.00 0.00 0.00 46 1018.0
20260507113935 20 0 0.0 0.0 0.00 0.00 0.00 47 1018.0
20260507112708 20 0 0.0 0.0 0.00 0.00 0.00 47 1019.0
20260507111435 20 0 0.0 0.0 0.00 0.00 0.00 46 1019.0
20260507110206 20 0 0.0 0.0 0.00 0.00 0.00 45 1019.0
20260507104935 20 0 0.0 0.0 0.00 0.00 0.00 40 1019.0
20260507103708 20 0 0.0 0.0 0.00 0.00 0.00 33 1019.0
20260507102435 20 0 0.0 0.0 0.00 0.00 0.00 29 1019.0
20260507101206 21 278 0.0 3.2 0.00 0.00 0.00 29 1019.0
20260507095935 21 265 1.6 6.4 0.00 0.00 0.00 29 1019.0
20260507094706 21 264 3.2 8.0 0.00 0.00 0.00 29 1018.0
20260507093435 21 265 0.0 4.8 0.00 0.00 0.00 28 1018.0
20260507092206 21 0 0.0 0.0 0.00 0.00 0.00 28 1018.0
20260507090935 21 339 0.0 4.8 0.00 0.00 0.00 29 1018.0
20260507085706 21 256 0.0 4.8 0.00 0.00 0.00 30 1018.0
20260507084435 21 278 0.0 4.8 0.00 0.00 0.00 30 1018.0
20260507083206 21 270 0.0 3.2 0.00 0.00 0.00 31 1017.0
20260507081935 21 258 0.0 4.8 0.00 0.00 0.00 31 1017.0
20260507080706 21 242 0.0 4.8 0.00 0.00 0.00 30 1017.0
20260507075435 21 252 1.6 6.4 0.00 0.00 0.00 30 1017.0
20260507074206 21 0 0.0 0.0 0.00 0.00 0.00 30 1017.0
20260507072935 21 257 0.0 3.2 0.00 0.00 0.00 29 1017.0
20260507071708 22 0 0.0 0.0 0.00 0.00 0.00 29 1017.0
20260507070435 21 0 0.0 0.0 0.00 0.00 0.00 29 1017.0
20260507065205 21 265 0.0 3.2 0.00 0.00 0.00 29 1017.0
20260507063935 22 259 0.0 4.8 0.00 0.00 0.00 28 1017.0
20260507062705 22 264 0.0 3.2 0.00 0.00 0.00 26 1017.0
20260507061435 23 252 0.0 3.2 0.00 0.00 0.00 27 1017.0